Location: Tyumen
(57.1527°N, 65.5323°E)
Time: 03:39:01
(UTC+05:00)

ISS - Pass Details

Date: 13 July 2025
Orbit: 413 x 417 km, 51.6° (Epoch: 13 July)

Event Time Altitude Azimuth Distance (km) Brightness Sun altitude
Rises 00:17:23 0° 265° (W) 2,356 0.1 -10.8°
Reaches altitude 10° 00:19:40 10° 253° (WSW) 1,493 -1.1 -10.8°
Maximum altitude 00:22:32 26° 194° (SSW) 851 -2.7 -10.9°
Enters shadow 00:25:00 12° 139° (SE) 1,354 -1.7 -10.9°
